Weather History for Mountain Home, ID

Change the Weather History Date:

Wednesday, November 28, 2012

  Actual Average Record
Temperature  
Mean Temperature 40 °F 33 °F  
Max Temperature 55 °F 42 °F 64 °F (1953)
Min Temperature 24 °F 24 °F -8 °F (1919)
Degree Days  
Heating Degree Days 25 31  
Month to date heating degree days 638 720  
Cooling Degree Days 0 0  
Month to date cooling degree days 0 0  
Moisture  
Dew Point 33 °F    
Average Humidity 82    
Maximum Humidity 100    
Minimum Humidity 37    
Precipitation  
Precipitation T in 0.05 in 0.75 in (1966)
Month to date precipitation 0.18 1.17  
Sea Level Pressure  
Sea Level Pressure 30.04 in    
Wind  
Wind Speed 9 mph (East)    
Max Wind Speed 22 mph    
Max Gust Speed 30 mph    
Visibility 10 miles    
Events Rain    
T = Trace of Precipitation, MM = Missing Value Source: NWS Daily Summary

Daily Weather History Graph

Daily Weather History Graph

Search for Another Location

Airport:

Trip Planner

Search our weather history database for the weather conditions in past years. The results will help you decide how hot, cold, wet, or windy it might be!

Date:

Astronomy

Nov. 28, 2012 Rise Set
Actual Time 7:52 AM MST 5:10 PM MST
Civil Twilight 7:20 AM MST 5:42 PM MST
Nautical Twilight 6:45 AM MST 6:17 PM MST
Astronomical Twilight 6:11 AM MST 6:51 PM MST
Moon 5:28 PM MST (11/28) 7:53 AM MST (11/28)
Length of Visible Light 10h 21m
Length of Day
9h 18m
Full, 100% of the Moon is Illuminated
Nov 28
Full
Dec 6
Last Quarter
Dec 13
New
Dec 19
First Quarter
Dec 28
Full

Hourly Weather History & Observations

Time (MST) Temp. Windchill Dew Point Humidity Pressure Visibility Wind Dir Wind Speed Gust Speed Precip Events Conditions
12:58 AM 27.3 °F 23.4 °F 27.3 °F 100% 30.22 in 10.0 mi ENE 3.5 mph - N/A   Mostly Cloudy
1:58 AM 27.9 °F 19.8 °F 27.9 °F 100% 30.19 in 10.0 mi ESE 8.1 mph - N/A   Mostly Cloudy
2:58 AM 27.1 °F 23.2 °F 27.1 °F 100% 30.18 in 10.0 mi East 3.5 mph - N/A   Partly Cloudy
3:58 AM 26.8 °F 21.4 °F 26.8 °F 100% 30.19 in 10.0 mi ENE 4.6 mph - N/A   Clear
4:58 AM 28.0 °F 18.6 °F 28.0 °F 100% 30.17 in 10.0 mi East 10.4 mph - N/A   Clear
5:58 AM 25.5 °F 16.2 °F 25.5 °F 100% 30.17 in 10.0 mi East 9.2 mph - N/A   Clear
6:58 AM 24.4 °F 18.6 °F 24.4 °F 100% 30.17 in 10.0 mi North 4.6 mph - N/A   Clear
7:58 AM 26.1 °F 16.2 °F 26.1 °F 100% 30.17 in 10.0 mi ESE 10.4 mph - N/A   Partly Cloudy
8:58 AM 33.1 °F 23.9 °F 32.9 °F 99% 30.14 in 10.0 mi ESE 12.7 mph - N/A   Overcast
9:58 AM 37.6 °F 28.8 °F 37.6 °F 100% 30.12 in 10.0 mi ESE 15.0 mph - N/A   Clear
10:58 AM 41.9 °F 32.8 °F 34.5 °F 75% 30.07 in 10.0 mi ESE 20.7 mph 25.3 mph N/A   Partly Cloudy
11:58 AM 46.9 °F - 31.5 °F 55% 30.03 in 10.0 mi ESE 20.7 mph 28.8 mph N/A   Scattered Clouds
12:58 PM 50.5 °F - 30.6 °F 46% 29.98 in 10.0 mi ESE 21.9 mph - N/A   Partly Cloudy
1:58 PM 54.5 °F - 28.4 °F 37% 29.94 in 10.0 mi East 20.7 mph 29.9 mph N/A   Mostly Cloudy
2:58 PM 53.6 °F - 29.3 °F 39% 29.92 in 10.0 mi ESE 17.3 mph - N/A   Overcast
3:58 PM 53.2 °F - 29.1 °F 40% 29.91 in 10.0 mi ESE 17.3 mph - N/A   Overcast
4:58 PM 52.5 °F - 28.6 °F 40% 29.92 in 10.0 mi SE 11.5 mph - N/A   Overcast
5:58 PM 52.0 °F - 28.6 °F 41% 29.93 in 10.0 mi SSW 4.6 mph - N/A   Overcast
6:58 PM 48.6 °F - 33.6 °F 56% 29.99 in 10.0 mi Variable 5.8 mph - 0.00 in Rain Light Rain
7:53 PM 44.6 °F 40.7 °F 39.2 °F 81% 29.93 in 10.0 mi NNW 6.9 mph - N/A   Mostly Cloudy
7:58 PM 44.2 °F 40.3 °F 39.7 °F 84% 29.98 in 10.0 mi North 6.9 mph - 0.00 in   Mostly Cloudy
8:58 PM 41.4 °F 39.4 °F 41.4 °F 100% 29.99 in 10.0 mi North 3.5 mph - 0.00 in Rain Light Rain
9:08 PM 41.0 °F 37.1 °F 41.0 °F 100% 29.95 in 10.0 mi NNE 5.8 mph - N/A   Overcast
9:23 PM 41.0 °F 35.8 °F 41.0 °F 100% 29.94 in 10.0 mi NE 8.1 mph - N/A   Overcast
9:33 PM 42.8 °F 40.1 °F 42.8 °F 100% 29.95 in 10.0 mi East 4.6 mph - N/A   Overcast
9:58 PM 42.1 °F 37.1 °F 42.1 °F 100% 29.99 in 10.0 mi East 8.1 mph - 0.00 in   Mostly Cloudy
10:58 PM 39.4 °F - 39.4 °F 100% 30.02 in 10.0 mi East 1.2 mph - N/A   Mostly Cloudy
11:58 PM 36.1 °F 32.3 °F 36.1 °F 100% 30.02 in 10.0 mi ESE 4.6 mph - N/A   Clear